Regional Weather Roundup
Issued by NWS State College, PA

Home | Current Version | Previous Version | Graphics & Text | Print | Product List | Glossary Off
Versions: 1 2 3 4 5 6 7 8 9 10 11 12 13 14 15 16 17 18 19 20 21 22 23 24 25 26 27 28 29 30 31 32 33 34 35 36 37 38 39 40 41 42 43 44 45 46 47 48 49 50

000
ASUS41 KCTP 022203
RWRCTP

REGIONAL WEATHER ROUNDUP
NATIONAL WEATHER SERVICE STATE COLLEGE PA
500 PM EST MON MAR 02 2015

Note: "fair" indicates few or no clouds below 12,000 feet with no
significant weather and/or obstructions to visibility.

* = STATION THAT DOES NOT REPORT PRECIPITATION /E.G. RAIN...SNOW...ETC/
    THUNDER OR FOG.

PAZ002>004-007>009-013>016-020>023-029>032-022300-
WESTERN PENNSYLVANIA

CITY           SKY/WX    TMP DP  RH WIND       PRES   REMARKS
ERIE           PTSUNNY   24  15  68 W12       30.44R WCI  13
MEADVILLE        N/A     24   7  48 NW10      30.38R WCI  14
FRANKLIN*      SUNNY     25   9  50 W10G17    30.37R WCI  15
NEW CASTLE     FAIR      28  11  49 W7        30.41R
BEAVER COUNTY  MOSUNNY   27  14  59 W10       30.40R
BUTLER*        MOSUNNY   27  12  54 W9        30.40S
PITTSBURGH INT MOSUNNY   28  15  58 NW14      30.40R
PITTSBURGH     PTSUNNY   29  11  47 NW8       30.38S
INDIANA*       CLOUDY    27  16  63 W13G21    30.39R
LATROBE        NOT AVBL
WASHINGTON CO* SUNNY     30  16  55 NW7       30.41S
$$

PAZ004>006-010>012-017>019-024>028-033>037-041-042-045-046-049>053-022300-
CENTRAL PENNSYLVANIA

CITY           SKY/WX    TMP DP  RH WIND       PRES   REMARKS
BRADFORD       SUNNY     21   6  52 NW16G26   30.26R WCI   7
DUBOIS         SUNNY     26  10  50 W12       30.29S
CLEARFIELD     MIX PCPN  28  11  48 NW13G23   30.29F
JOHNSTOWN      MOSUNNY   23  12  62 W20G25    30.27S WCI   8
ALTOONA        PTSUNNY   27  14  58 NW14      30.32R
STATE COLLEGE  MOSUNNY   28  12  50 NW16G26   30.30S
WILLIAMSPORT   CLEAR     34   8  33 NW15      30.28R
SELINSGROVE    SUNNY     34  11  38 W13G21    30.30R
FT INDIANTOWN  CLEAR     35  12  40 W10G21    30.28R
CAPITAL CITY   SUNNY     35  12  38 NW14G21   30.30R
HARRISBURG     MOSUNNY   34  15  46 NW20G28   30.30R
YORK           SUNNY     34  13  41 W14G21    30.30R
$$

PAZ038>040-043-044-047-048-054-055-060>062-067>071-022300-
EASTERN PENNSYLVANIA

CITY           SKY/WX    TMP DP  RH WIND       PRES   REMARKS
SCRANTON       CLEAR     31   9  39 NW14G23   30.22R
MOUNT POCONO   FAIR      27   7  42 NW16G31   30.12R WCI  15
ALLENTOWN      CLEAR     36  13  38 W17       30.21R
QUAKERTOWN*    CLEAR     36  12  38 W10G20    30.23R
READING        CLEAR     35  12  38 W17G25    30.26R
LANCASTER      CLEAR     34  15  46 NW12      30.28R
COATESVILLE    CLEAR     36  19  51 NW17G23   30.26R
POTTSTOWN      CLEAR     36  14  40 W14G21    30.26R
BLUE BELL      CLEAR     37  18  44 W12       30.23R
DOYLESTOWN     CLEAR     35  14  42 W15G24    30.22R
WILLOW GROVE   NOT AVBL
NORTH PHILA    CLEAR     39  12  33 W16       30.26R
PHILADELPHIA   PTCLDY    39  13  34 NW21G28   30.27R
$$



USA.gov is the U.S. government's official web portal to all federal, state and local government web resources and services.